Weather History for KDFI - December, 2011

Change the Weather History Date:

Thursday, December 15, 2011

  Actual Average Record
Temperature  
Mean Temperature 48 °F -  
Max Temperature 59 °F 37 °F 66 °F (1975)
Min Temperature 36 °F 22 °F -5 °F (1945)
Degree Days  
Heating Degree Days 18    
Moisture  
Dew Point 45 °F    
Average Humidity 80    
Maximum Humidity 94    
Minimum Humidity 59    
Precipitation  
Precipitation 0.32 in - - ()
Sea Level Pressure  
Sea Level Pressure 29.82 in    
Wind  
Wind Speed 15 mph (SW)    
Max Wind Speed 20 mph    
Max Gust Speed 38 mph    
Visibility 8 miles    
Events Rain    
Averages and records for this station are not official NWS values.
T = Trace of Precipitation, MM = Missing Value Source: NWS Daily Summary

Daily Weather History Graph

Daily Weather History Graph

Search for Another Location

Airport or City:

Trip Planner

Search our weather history database for the weather conditions in past years. The results will help you decide how hot, cold, wet, or windy it might be!

Date:

Astronomy

Dec. 15, 2011 Rise Set
Actual Time 7:56 AM EST 5:09 PM EST
Civil Twilight 7:25 AM EST 5:40 PM EST
Nautical Twilight 6:50 AM EST 6:15 PM EST
Astronomical Twilight 6:16 AM EST 6:48 PM EST
Moon 10:37 PM EST (12/15) 11:09 AM EST (12/15)
Length of Visible Light 10h 15m
Length of Day
9h 12m
Waning Gibbous, 75% of the Moon is Illuminated
Dec 15
Waning Gibbous
Dec 17
Last Quarter
Dec 24
New
Jan 1
First Quarter
Jan 9
Full

Hourly Weather History & Observations

Time (EST) Temp. Windchill Dew Point Humidity Pressure Visibility Wind Dir Wind Speed Gust Speed Precip Events Conditions
12:05 AM 55.4 °F - 51.8 °F 88% 29.82 in 9.0 mi SSW 15.0 mph 25.3 mph 0.00 in   Overcast
12:12 AM 55.4 °F - 51.8 °F 88% 29.83 in 9.0 mi SSW 16.1 mph 26.5 mph 0.00 in Rain Light Rain
12:47 AM 55.4 °F - 51.8 °F 88% 29.82 in 5.0 mi SSW 16.1 mph 23.0 mph 0.03 in Rain Light Rain
12:48 AM 55.0 °F - 51.1 °F 86% 29.83 in 5.0 mi SSW 16.1 mph 23.0 mph 0.04 in Rain Light Rain
12:59 AM 55.4 °F - 51.8 °F 88% 29.82 in 4.0 mi SSW 15.0 mph 27.6 mph 0.03 in Rain Rain
1:11 AM 55.4 °F - 51.8 °F 88% 29.80 in 5.0 mi SSW 16.1 mph 23.0 mph 0.05 in Rain Rain
1:53 AM 55.9 °F - 52.0 °F 87% 29.77 in 6.0 mi SSW 17.3 mph 24.2 mph 0.10 in Rain Rain
2:03 AM 55.4 °F - 51.8 °F 88% 29.77 in 10.0 mi SSW 18.4 mph 26.5 mph 0.01 in Rain Light Rain
2:53 AM 55.9 °F - 52.0 °F 87% 29.76 in 5.0 mi SSW 17.3 mph 24.2 mph 0.01 in Rain Light Rain
3:53 AM 55.9 °F - 53.1 °F 90% 29.74 in 4.0 mi SSW 18.4 mph 24.2 mph 0.07 in Rain Rain
4:03 AM 55.4 °F - 53.6 °F 94% 29.72 in 2.5 mi SSW 16.1 mph 25.3 mph 0.03 in Rain Rain
4:08 AM 55.4 °F - 53.6 °F 94% 29.73 in 4.0 mi SSW 16.1 mph - 0.03 in Rain Light Rain
4:23 AM 55.4 °F - 53.6 °F 94% 29.72 in 8.0 mi SSW 17.3 mph 25.3 mph 0.04 in Rain Light Rain
4:51 AM 55.4 °F - 53.6 °F 94% 29.71 in 7.0 mi SSW 17.3 mph 29.9 mph 0.05 in Rain Light Rain
4:53 AM 55.9 °F - 53.1 °F 90% 29.72 in 8.0 mi SSW 15.0 mph 29.9 mph 0.05 in Rain Light Rain
5:53 AM 55.9 °F - 53.1 °F 90% 29.72 in 3.0 mi SSW 18.4 mph 26.5 mph 0.01 in Rain Light Rain
6:53 AM 55.9 °F - 53.1 °F 90% 29.70 in 3.0 mi SSW 19.6 mph 29.9 mph 0.02 in Rain Light Rain
7:53 AM 57.0 °F - 53.1 °F 87% 29.70 in 8.0 mi SSW 18.4 mph 26.5 mph 0.01 in Rain Light Rain
9:53 AM 57.0 °F - 54.0 °F 89% 29.70 in 10.0 mi SSW 13.8 mph 23.0 mph 0.02 in   Overcast
10:07 AM 57.2 °F - 53.6 °F 88% 29.70 in 10.0 mi SSW 13.8 mph - N/A   Overcast
10:32 AM 59.0 °F - 53.6 °F 82% 29.70 in 8.0 mi WSW 17.3 mph 38.0 mph 0.00 in Rain Light Rain
10:44 AM 57.2 °F - 53.6 °F 88% 29.70 in 10.0 mi WSW 10.4 mph 19.6 mph 0.00 in Rain Light Rain
10:53 AM 57.9 °F - 52.0 °F 81% 29.70 in 10.0 mi WSW 10.4 mph 19.6 mph 0.00 in Rain Light Rain
11:53 AM 55.0 °F - 48.9 °F 80% 29.72 in 5.0 mi West 8.1 mph 21.9 mph 0.02 in Rain Rain
12:53 PM 53.1 °F - 43.0 °F 69% 29.75 in 10.0 mi West 16.1 mph 28.8 mph 0.01 in   Overcast
1:31 PM 51.8 °F - 42.8 °F 71% 29.76 in 10.0 mi West 12.7 mph 26.5 mph N/A   Overcast
2:53 PM 46.9 °F - 37.0 °F 68% 29.81 in 10.0 mi West 11.5 mph 25.3 mph N/A   Overcast
3:53 PM 46.0 °F 41.4 °F 34.0 °F 63% 29.85 in 10.0 mi West 9.2 mph 27.6 mph N/A   Overcast
4:53 PM 44.1 °F 38.1 °F 33.1 °F 65% 29.88 in 10.0 mi West 11.5 mph 21.9 mph N/A   Overcast
5:53 PM 42.1 °F 36.6 °F 30.9 °F 65% 29.93 in 10.0 mi West 9.2 mph 26.5 mph N/A   Overcast
6:21 PM 42.8 °F 35.8 °F 30.2 °F 61% 29.93 in 10.0 mi West 13.8 mph 25.3 mph N/A   Overcast
6:51 PM 41.0 °F 33.9 °F 30.2 °F 65% 29.95 in 10.0 mi WSW 12.7 mph 29.9 mph N/A   Overcast
6:53 PM 41.0 °F 32.8 °F 30.9 °F 67% 29.96 in 10.0 mi West 16.1 mph 31.1 mph N/A   Overcast
7:53 PM 37.9 °F 29.2 °F 28.9 °F 70% 30.02 in 10.0 mi West 15.0 mph 29.9 mph N/A   Overcast
8:53 PM 37.0 °F 28.9 °F 25.0 °F 62% 30.06 in 10.0 mi WNW 12.7 mph 26.5 mph N/A   Overcast
9:53 PM 37.0 °F 30.4 °F 24.1 °F 59% 30.09 in 10.0 mi West 9.2 mph 26.5 mph N/A   Overcast
10:53 PM 36.0 °F 28.5 °F 25.0 °F 64% 30.12 in 10.0 mi West 10.4 mph 17.3 mph N/A   Overcast
11:53 PM 36.0 °F 29.0 °F 25.0 °F 64% 30.15 in 10.0 mi WSW 9.2 mph 19.6 mph N/A   Overcast